FW0394 Weather Reports


Display with metric or nautical units.
time (UTC)temp
F
wind
direction
speed
MPH
gust
MPH
rain 1hr
in
rain 24hr
in
rain mn
in
humidity
%
barometer
mb
20260906011214 88 54 1.0 3.0 0.00 0.00 0.00 70 1012.0
20260906010503 88 61 2.0 4.0 0.00 0.00 0.00 69 1011.8
20260906010003 89 71 2.0 4.0 0.00 0.00 0.00 69 1011.9
20260906005503 89 79 2.0 3.0 0.00 0.00 0.00 69 1011.8
20260906005003 89 76 2.0 4.0 0.00 0.00 0.00 68 1011.8
20260906004503 89 73 1.0 4.0 0.00 0.00 0.00 68 1011.8
20260906004212 89 73 1.0 4.0 0.00 0.00 0.00 68 1011.8
20260906003503 89 86 1.0 3.0 0.00 0.00 0.00 68 1011.8
20260906003003 89 100 2.0 4.0 0.00 0.00 0.00 67 1011.6
20260906002713 90 100 2.0 4.0 0.00 0.00 0.00 68 1011.6
20260906002003 90 100 2.0 7.0 0.00 0.00 0.00 67 1011.5
20260906001503 90 105 3.0 7.0 0.00 0.00 0.00 67 1011.5
20260906001214 90 102 3.0 7.0 0.00 0.00 0.00 67 1011.4
20260906000503 90 95 2.0 7.0 0.00 0.00 0.00 67 1011.4
20260906000003 90 105 2.0 7.0 0.00 0.00 0.00 66 1011.5
20260905235503 91 114 2.0 7.0 0.00 0.00 0.00 65 1011.6
20260905235003 91 133 2.0 7.0 0.00 0.00 0.00 65 1011.6
20260905234713 91 135 2.0 5.0 0.00 0.00 0.00 66 1011.6
20260905234214 91 118 3.0 9.0 0.00 0.00 0.00 65 1011.6
20260905233503 91 111 2.0 7.0 0.00 0.00 0.00 65 1011.6
20260905233003 91 117 2.0 7.0 0.00 0.00 0.00 65 1011.5
20260905232503 91 99 2.0 6.0 0.00 0.00 0.00 63 1011.5
20260905232003 92 84 2.0 5.0 0.00 0.00 0.00 64 1011.5
20260905231503 92 102 2.0 5.0 0.00 0.00 0.00 63 1011.6
20260905231008 92 140 3.0 9.0 0.00 0.00 0.00 63 1011.5
20260905230503 92 139 4.0 11.0 0.00 0.00 0.00 63 1011.5
20260905230213 92 126 4.0 11.0 0.00 0.00 0.00 63 1011.5
20260905225503 92 112 3.0 8.0 0.00 0.00 0.00 62 1011.5
20260905225003 92 121 3.0 9.0 0.00 0.00 0.00 62 1011.5
20260905224503 92 129 3.0 9.0 0.00 0.00 0.00 62 1011.5
20260905224003 93 136 4.0 11.0 0.00 0.00 0.00 60 1011.3
20260905223503 93 126 4.0 11.0 0.00 0.00 0.00 60 1011.4
20260905223003 93 129 4.0 11.0 0.00 0.00 0.00 61 1011.2
20260905222712 94 130 4.0 11.0 0.00 0.00 0.00 59 1011.2
20260905222003 94 138 5.0 11.0 0.00 0.00 0.00 60 1011.2
20260905221714 93 147 5.0 11.0 0.00 0.00 0.00 59 1011.2
20260905221003 93 141 5.0 12.0 0.00 0.00 0.00 59 1011.2
20260905220503 93 142 6.0 14.0 0.00 0.00 0.00 58 1011.2
20260905220004 94 144 5.0 14.0 0.00 0.00 0.00 57 1011.3
20260905215503 93 135 4.0 13.0 0.00 0.00 0.00 58 1011.3
20260905215003 93 112 3.0 7.0 0.00 0.00 0.00 59 1011.4
20260905214503 93 123 3.0 11.0 0.00 0.00 0.00 59 1011.5
20260905214219 93 130 3.0 11.0 0.00 0.00 0.00 59 1011.4
20260905213714 92 116 3.0 11.0 0.00 0.00 0.00 57 1011.5
20260905213003 92 91 4.0 10.0 0.00 0.00 0.00 60 1011.6
20260905212503 92 92 4.0 10.0 0.00 0.00 0.00 59 1011.6
20260905212003 93 98 3.0 9.0 0.00 0.00 0.00 57 1011.7
20260905211503 93 110 3.0 9.0 0.00 0.00 0.00 58 1011.8
20260905211213 93 118 3.0 10.0 0.00 0.00 0.00 57 1012.0
20260905210503 93 85 3.0 10.0 0.00 0.00 0.00 59 1012.1
20260905210213 92 72 3.0 8.0 0.00 0.00 0.00 58 1012.1
20260905205503 92 118 2.0 10.0 0.00 0.00 0.00 59 1012.2
20260905205003 92 121 3.0 10.0 0.00 0.00 0.00 60 1012.2
20260905204714 92 103 3.0 10.0 0.00 0.00 0.00 61 1012.3
20260905204004 91 80 4.0 8.0 0.00 0.00 0.00 60 1012.4
20260905203503 91 72 4.0 8.0 0.00 0.00 0.00 60 1012.6
20260905203003 91 65 4.0 9.0 0.00 0.00 0.00 58 1012.8
20260905202713 91 65 4.0 9.0 0.00 0.00 0.00 59 1012.9
20260905202003 91 78 4.0 10.0 0.00 0.00 0.00 57 1013.0
20260905201503 92 107 4.0 10.0 0.00 0.00 0.00 59 1013.0
20260905201212 92 116 3.0 11.0 0.00 0.00 0.00 58 1013.2
20260905200503 92 99 3.0 11.0 0.00 0.00 0.00 58 1013.5
20260905200003 91 102 4.0 9.0 0.00 0.00 0.00 60 1013.8
20260905195503 91 85 4.0 9.0 0.00 0.00 0.00 60 1013.8
20260905195003 90 64 4.0 9.0 0.00 0.00 0.00 59 1013.9
20260905194503 90 65 4.0 9.0 0.00 0.00 0.00 63 1013.8
20260905194003 90 66 4.0 8.0 0.00 0.00 0.00 63 1013.8
20260905193504 90 68 5.0 10.0 0.00 0.00 0.00 62 1013.8
20260905193003 90 71 4.0 10.0 0.00 0.00 0.00 62 1013.9
20260905192503 90 69 4.0 10.0 0.00 0.00 0.00 67 1013.8
20260905192003 91 77 4.0 10.0 0.00 0.00 0.00 64 1013.9
20260905191503 91 77 3.0 12.0 0.00 0.00 0.00 63 1014.0
20260905191003 90 61 4.0 12.0 0.00 0.00 0.00 65 1014.2
20260905190503 90 54 4.0 12.0 0.00 0.00 0.00 65 1014.4
20260905190003 90 51 4.0 12.0 0.00 0.00 0.00 64 1014.5
20260905185503 90 63 5.0 10.0 0.00 0.00 0.00 66 1014.6
20260905185003 89 60 6.0 12.0 0.00 0.00 0.00 66 1014.8
20260905184503 89 56 7.0 13.0 0.00 0.00 0.00 64 1014.9
20260905184214 89 56 6.0 13.0 0.00 0.00 0.00 65 1015.1
20260905183713 89 62 6.0 13.0 0.00 0.00 0.00 65 1015.2
20260905183004 88 53 6.0 17.0 0.00 0.00 0.00 67 1015.3
20260905182503 88 55 6.0 15.0 0.00 0.00 0.00 67 1015.3
20260905182003 88 51 6.0 16.0 0.00 0.00 0.00 68 1015.3
20260905181713 88 51 6.0 16.0 0.00 0.00 0.00 67 1015.3
20260905181003 88 53 6.0 13.0 0.00 0.00 0.00 68 1015.3
20260905180503 88 48 6.0 13.0 0.00 0.00 0.00 69 1015.3
20260905180003 88 49 5.0 14.0 0.00 0.00 0.00 68 1015.3
20260905175503 88 45 6.0 14.0 0.00 0.00 0.00 68 1015.2
20260905175003 88 43 6.0 14.0 0.00 0.00 0.00 69 1015.1
20260905174503 88 40 6.0 15.0 0.00 0.00 0.00 67 1015.1
20260905174013 88 41 7.0 17.0 0.00 0.00 0.00 67 1015.1
20260905173503 88 42 5.0 17.0 0.00 0.00 0.00 67 1015.1
20260905173004 88 39 5.0 13.0 0.00 0.00 0.00 67 1015.0
20260905172503 88 43 5.0 13.0 0.00 0.00 0.00 66 1015.1
20260905172003 88 41 4.0 13.0 0.00 0.00 0.00 67 1015.2
20260905171712 88 38 5.0 13.0 0.00 0.00 0.00 66 1015.3
20260905171213 88 34 7.0 15.0 0.00 0.00 0.00 65 1015.3
20260905170503 88 26 4.0 12.0 0.00 0.00 0.00 66 1015.2
20260905170213 88 27 4.0 12.0 0.00 0.00 0.00 65 1015.2
20260905165504 88 37 5.0 14.0 0.00 0.00 0.00 64 1015.3
20260905165003 88 38 5.0 14.0 0.00 0.00 0.00 65 1015.3
20260905164503 88 45 4.0 11.0 0.00 0.00 0.00 67 1015.3
20260905164003 88 39 3.0 9.0 0.00 0.00 0.00 66 1015.3
20260905163503 88 34 3.0 9.0 0.00 0.00 0.00 65 1015.4
20260905163004 89 40 3.0 9.0 0.00 0.00 0.00 66 1015.3
20260905162504 88 40 3.0 9.0 0.00 0.00 0.00 65 1015.3
20260905162003 88 41 3.0 9.0 0.00 0.00 0.00 65 1015.2
20260905161503 88 45 2.0 8.0 0.00 0.00 0.00 66 1015.2
20260905161003 87 53 2.0 8.0 0.00 0.00 0.00 66 1015.0
20260905160714 87 51 2.0 5.0 0.00 0.00 0.00 67 1015.0
20260905160003 87 49 1.0 5.0 0.00 0.00 0.00 66 1014.9
20260905155504 86 62 1.0 4.0 0.00 0.00 0.00 67 1014.9
20260905155003 86 64 2.0 4.0 0.00 0.00 0.00 67 1014.8
20260905154503 85 70 1.0 3.0 0.00 0.00 0.00 67 1014.9
20260905154003 85 72 1.0 3.0 0.00 0.00 0.00 67 1014.9
20260905153714 85 74 0.0 3.0 0.00 0.00 0.00 69 1014.8
20260905153003 84 79 0.0 3.0 0.00 0.00 0.00 69 1014.8
20260905152504 84 74 0.0 3.0 0.00 0.00 0.00 70 1014.9
20260905152004 84 64 0.0 2.0 0.00 0.00 0.00 71 1014.6
20260905151503 84 64 0.0 2.0 0.00 0.00 0.00 73 1014.4
20260905151003 84 65 0.0 2.0 0.00 0.00 0.00 71 1014.4
20260905150713 84 65 0.0 2.0 0.00 0.00 0.00 72 1014.4
20260905150003 83 63 1.0 3.0 0.00 0.00 0.00 71 1014.4
20260905145504 83 63 0.0 3.0 0.00 0.00 0.00 71 1014.4
20260905145215 83 0 0.0 0.0 0.00 0.00 0.00 72 1014.3
20260905144503 82 84 0.0 1.0 0.00 0.00 0.00 74 1014.1
20260905144003 82 84 0.0 1.0 0.00 0.00 0.00 74 1014.0
20260905143713 82 0 0.0 1.0 0.00 0.00 0.00 74 1013.9
20260905143003 82 92 1.0 3.0 0.00 0.00 0.00 75 1013.8
20260905142713 82 112 1.0 3.0 0.00 0.00 0.00 74 1013.7
20260905142212 81 143 1.0 4.0 0.00 0.00 0.00 74 1013.7
20260905141504 81 143 3.0 8.0 0.00 0.00 0.00 77 1013.5
20260905141003 80 140 3.0 8.0 0.00 0.00 0.00 75 1013.3
20260905140713 80 136 3.0 7.0 0.00 0.00 0.00 77 1013.4
20260905140004 80 133 2.0 5.0 0.00 0.00 0.00 78 1013.5
20260905135503 79 106 1.0 4.0 0.00 0.00 0.00 78 1013.6
20260905135003 79 77 1.0 3.0 0.00 0.00 0.00 79 1013.7
20260905134504 78 77 1.0 3.0 0.00 0.00 0.00 80 1013.7
20260905134214 78 78 0.0 3.0 0.00 0.00 0.00 79 1013.8
20260905133503 78 0 0.0 0.0 0.00 0.00 0.00 81 1013.7
20260905133003 77 130 0.0 4.0 0.00 0.00 0.00 81 1013.7
20260905132503 77 132 1.0 4.0 0.00 0.00 0.00 81 1013.5
20260905132003 77 134 0.0 3.0 0.00 0.00 0.00 82 1013.3
20260905131503 76 0 0.0 0.0 0.00 0.00 0.00 83 1013.2
20260905131214 76 0 0.0 0.0 0.00 0.00 0.00 83 1013.2
20260905130503 76 135 0.0 2.0 0.00 0.00 0.00 84 1013.2
20260905130003 76 135 0.0 2.0 0.00 0.00 0.00 84 1013.2
20260905125503 75 135 0.0 2.0 0.00 0.00 0.00 84 1013.1
20260905125003 75 0 0.0 0.0 0.00 0.00 0.00 84 1013.0
20260905124503 75 135 0.0 2.0 0.00 0.00 0.00 84 1012.9
20260905124003 75 135 0.0 2.0 0.00 0.00 0.00 84 1012.9
20260905123504 75 135 0.0 2.0 0.00 0.00 0.00 84 1012.8
20260905123213 75 135 0.0 2.0 0.00 0.00 0.00 84 1012.8
20260905122503 75 135 0.0 2.0 0.00 0.00 0.00 84 1012.6
20260905122003 75 135 1.0 3.0 0.00 0.00 0.00 84 1012.4
20260905121503 75 136 1.0 3.0 0.00 0.00 0.00 83 1012.4
20260905121003 75 137 1.0 3.0 0.00 0.00 0.00 84 1012.4
20260905120712 75 137 0.0 2.0 0.00 0.00 0.00 84 1012.5
20260905120004 75 137 0.0 1.0 0.00 0.00 0.00 84 1012.4
20260905115503 75 0 0.0 0.0 0.00 0.00 0.00 84 1012.3
20260905115003 75 137 0.0 1.0 0.00 0.00 0.00 84 1012.4
20260905114503 75 137 1.0 1.0 0.00 0.00 0.00 84 1012.3
20260905114003 75 137 0.0 3.0 0.00 0.00 0.00 85 1012.5
20260905113503 75 138 0.0 3.0 0.00 0.00 0.00 85 1012.4
20260905113003 75 140 0.0 1.0 0.00 0.00 0.00 85 1012.3
20260905112503 74 140 0.0 1.0 0.00 0.00 0.00 84 1012.3
20260905112003 75 140 0.0 1.0 0.00 0.00 0.00 84 1012.2
20260905111503 75 140 0.0 2.0 0.00 0.00 0.00 85 1012.2
20260905111213 75 140 0.0 2.0 0.00 0.00 0.00 85 1012.3
20260905110504 75 140 0.0 2.0 0.00 0.00 0.00 85 1012.2
20260905110003 75 140 0.0 2.0 0.00 0.00 0.00 85 1012.1
20260905105503 75 140 0.0 2.0 0.00 0.00 0.00 85 1012.2
20260905105003 75 0 0.0 0.0 0.00 0.00 0.00 85 1012.3
20260905104503 75 0 0.0 0.0 0.00 0.00 0.00 85 1012.3
20260905104213 75 0 0.0 0.0 0.00 0.00 0.00 85 1012.3
20260905103503 75 0 0.0 0.0 0.00 0.00 0.00 85 1012.1
20260905103213 75 0 0.0 0.0 0.00 0.00 0.00 85 1012.0
20260905102714 75 0 0.0 1.0 0.00 0.00 0.00 85 1011.9
20260905102003 75 0 0.0 1.0 0.00 0.00 0.00 85 1011.9
20260905101503 75 0 0.0 0.0 0.00 0.00 0.00 85 1011.9
20260905101003 75 0 0.0 1.0 0.00 0.00 0.00 84 1011.9
20260905100714 75 0 0.0 1.0 0.00 0.00 0.00 84 1011.9
20260905100003 75 0 0.0 0.0 0.00 0.00 0.00 84 1011.8
20260905095503 75 0 0.0 0.0 0.00 0.00 0.00 84 1011.8
20260905095212 75 0 0.0 1.0 0.00 0.00 0.00 84 1011.7
20260905094503 76 140 0.0 1.0 0.00 0.00 0.00 83 1011.7
20260905094003 76 140 0.0 1.0 0.00 0.00 0.00 83 1011.6
20260905093503 76 0 0.0 0.0 0.00 0.00 0.00 82 1011.5
20260905093003 77 0 0.0 0.0 0.00 0.00 0.00 81 1011.5
20260905092713 77 0 0.0 0.0 0.00 0.00 0.00 81 1011.5
20260905092003 77 0 0.0 0.0 0.00 0.00 0.00 80 1011.5
20260905091503 77 0 0.0 0.0 0.00 0.00 0.00 80 1011.6
20260905091003 77 0 0.0 1.0 0.00 0.00 0.00 80 1011.7
20260905090503 77 140 0.0 1.0 0.00 0.00 0.00 80 1011.6
20260905090003 77 140 0.0 1.0 0.00 0.00 0.00 80 1011.7
20260905085503 78 140 0.0 2.0 0.00 0.00 0.00 79 1011.7
20260905085005 78 140 0.0 2.0 0.00 0.00 0.00 79 1011.8
20260905084504 78 140 0.0 2.0 0.00 0.00 0.00 79 1011.8
20260905084003 78 140 1.0 2.0 0.00 0.00 0.00 79 1011.9
20260905083503 78 140 1.0 2.0 0.00 0.00 0.00 79 1011.9
20260905083003 78 140 0.0 2.0 0.00 0.00 0.00 79 1012.0
20260905082503 78 140 0.0 2.0 0.00 0.00 0.00 80 1011.9
20260905082003 78 0 0.0 0.0 0.00 0.00 0.00 80 1012.0
20260905081713 78 0 0.0 0.0 0.00 0.00 0.00 80 1012.0
20260905081003 78 0 0.0 0.0 0.00 0.00 0.00 80 1012.1
20260905080504 78 140 0.0 1.0 0.00 0.00 0.00 80 1012.1
20260905080003 78 140 0.0 2.0 0.00 0.00 0.00 80 1012.2
20260905075503 78 140 0.0 2.0 0.00 0.00 0.00 80 1012.2
20260905075214 78 140 0.0 2.0 0.00 0.00 0.00 80 1012.3
20260905074504 78 0 0.0 0.0 0.00 0.00 0.00 80 1012.3
20260905074003 78 0 0.0 0.0 0.00 0.00 0.00 80 1012.4
20260905073503 78 0 0.0 0.0 0.00 0.00 0.00 79 1012.4
20260905073003 78 0 0.0 0.0 0.00 0.00 0.00 80 1012.4
20260905072503 78 0 0.0 0.0 0.00 0.00 0.00 80 1012.5
20260905072003 78 0 0.0 0.0 0.00 0.00 0.00 79 1012.4
20260905071503 79 0 0.0 0.0 0.00 0.00 0.00 80 1012.5
20260905071213 79 0 0.0 0.0 0.00 0.00 0.00 79 1012.5
20260905070503 79 0 0.0 0.0 0.00 0.00 0.00 79 1012.4
20260905070003 79 0 0.0 0.0 0.00 0.00 0.00 80 1012.5
20260905065503 79 0 0.0 0.0 0.00 0.00 0.00 80 1012.5
20260905065213 79 0 0.0 0.0 0.00 0.00 0.00 80 1012.5
20260905064503 79 0 0.0 0.0 0.00 0.00 0.00 80 1012.6
20260905064003 79 0 0.0 0.0 0.00 0.00 0.00 80 1012.7
20260905063503 80 0 0.0 0.0 0.00 0.00 0.00 80 1012.7
20260905063003 80 0 0.0 0.0 0.00 0.00 0.00 79 1012.6
20260905062503 80 0 0.0 1.0 0.00 0.00 0.00 79 1012.6
20260905062003 80 0 0.0 1.0 0.00 0.00 0.00 79 1012.6
20260905061503 80 0 0.0 0.0 0.00 0.00 0.00 78 1012.6
20260905061003 80 140 0.0 2.0 0.00 0.00 0.00 78 1012.6
20260905060503 81 140 0.0 2.0 0.00 0.00 0.00 78 1012.6
20260905060004 81 140 1.0 3.0 0.00 0.00 0.00 77 1012.6
20260905055503 81 140 1.0 3.0 0.00 0.00 0.00 77 1012.6
20260905055003 81 142 1.0 4.0 0.00 0.00 0.00 77 1012.5
20260905054503 81 150 1.0 4.0 0.00 0.00 0.00 77 1012.6
20260905054004 81 155 1.0 3.0 0.00 0.00 0.00 77 1012.6
20260905053503 81 158 0.0 2.0 0.00 0.00 0.00 77 1012.5
20260905053003 81 158 0.0 2.0 0.00 0.00 0.00 77 1012.5
20260905052503 81 158 0.0 2.0 0.00 0.00 0.00 77 1012.5
20260905052213 81 158 0.0 2.0 0.00 0.00 0.00 78 1012.4
20260905051503 81 0 0.0 0.0 0.00 0.00 0.00 78 1012.5
20260905051003 81 0 0.0 1.0 0.00 0.00 0.00 78 1012.4
20260905050503 82 159 0.0 2.0 0.00 0.00 0.00 79 1012.4
20260905050215 82 159 0.0 2.0 0.00 0.00 0.00 78 1012.3
20260905045503 82 159 0.0 1.0 0.00 0.00 0.00 78 1012.4
20260905045003 82 159 0.0 1.0 0.00 0.00 0.00 78 1012.3
20260905044504 82 159 0.0 1.0 0.00 0.00 0.00 78 1012.3
20260905044003 82 0 0.0 0.0 0.00 0.00 0.00 78 1012.2
20260905043503 82 0 0.0 0.0 0.00 0.00 0.00 77 1012.2
20260905043004 83 0 0.0 0.0 0.00 0.00 0.00 77 1012.2
20260905042503 83 0 0.0 0.0 0.00 0.00 0.00 77 1012.1
20260905042003 83 159 0.0 4.0 0.00 0.00 0.00 77 1012.0
20260905041503 83 160 1.0 4.0 0.00 0.00 0.00 76 1012.0
20260905041212 83 160 1.0 4.0 0.00 0.00 0.00 76 1011.9
20260905040713 83 161 0.0 2.0 0.00 0.00 0.00 76 1011.9
20260905040004 84 161 0.0 2.0 0.00 0.00 0.00 76 1012.0
20260905035713 84 0 0.0 0.0 0.00 0.00 0.00 76 1011.9
20260905035003 84 0 0.0 0.0 0.00 0.00 0.00 75 1011.9
20260905034503 84 0 0.0 0.0 0.00 0.00 0.00 74 1011.9
20260905034003 84 0 0.0 0.0 0.00 0.00 0.00 74 1011.9
20260905033504 85 0 0.0 0.0 0.00 0.00 0.00 74 1011.8
20260905033003 85 0 0.0 0.0 0.00 0.00 0.00 73 1011.8
20260905032504 86 0 0.0 0.0 0.00 0.00 0.00 73 1011.7
20260905032003 86 0 0.0 0.0 0.00 0.00 0.00 72 1011.6
20260905031503 86 0 0.0 0.0 0.00 0.00 0.00 72 1011.6
20260905031003 86 0 0.0 0.0 0.00 0.00 0.00 72 1011.5
20260905030503 86 0 0.0 0.0 0.00 0.00 0.00 72 1011.5
20260905030003 86 0 0.0 0.0 0.00 0.00 0.00 72 1011.5
20260905025503 86 0 0.0 0.0 0.00 0.00 0.00 72 1011.5
20260905025003 86 0 0.0 0.0 0.00 0.00 0.00 72 1011.4
20260905024503 86 0 0.0 0.0 0.00 0.00 0.00 72 1011.5
20260905024003 87 0 0.0 0.0 0.00 0.00 0.00 72 1011.5
20260905023503 87 0 0.0 0.0 0.00 0.00 0.00 72 1011.5
20260905023003 87 158 0.0 2.0 0.00 0.00 0.00 72 1011.4
20260905022503 87 158 0.0 2.0 0.00 0.00 0.00 72 1011.4
20260905022214 87 158 0.0 2.0 0.00 0.00 0.00 72 1011.3
20260905021713 87 158 0.0 1.0 0.00 0.00 0.00 72 1011.3
20260905021003 87 158 0.0 1.0 0.00 0.00 0.00 71 1011.4
20260905020503 87 158 0.0 2.0 0.00 0.00 0.00 70 1011.3
20260905020003 88 158 0.0 2.0 0.00 0.00 0.00 71 1011.3
20260905015503 88 0 0.0 0.0 0.00 0.00 0.00 70 1011.1
20260905015003 88 0 0.0 0.0 0.00 0.00 0.00 70 1011.2
20260905014713 88 0 0.0 0.0 0.00 0.00 0.00 70 1011.1
20260905014003 88 0 0.0 0.0 0.00 0.00 0.00 69 1010.9
20260905013712 88 0 0.0 0.0 0.00 0.00 0.00 69 1010.9
20260905013003 89 0 0.0 0.0 0.00 0.00 0.00 68 1010.9
20260905012503 89 0 0.0 0.0 0.00 0.00 0.00 68 1010.8
20260905012003 89 0 0.0 0.0 0.00 0.00 0.00 68 1010.8